TimeAKST,TemperatureF,Dew PointF,Humidity,Sea Level PressureIn,VisibilityMPH,Wind Direction,Wind SpeedMPH,Gust SpeedMPH,PrecipitationIn,Events,Conditions,WindDirDegrees,DateUTC
12:53 AM,-43.1,-9999,N/A,30.63,4.0,Calm,Calm,-,N/A,,Clear,0,2013-11-21 09:53:00
1:53 AM,-44.0,-9999,N/A,30.63,10.0,Calm,Calm,-,N/A,,Clear,0,2013-11-21 10:53:00
2:53 AM,-44.0,-9999,N/A,30.62,2.0,Calm,Calm,-,N/A,Fog,Clear,0,2013-11-21 11:53:00
3:32 AM,-45.4,-9999,N/A,30.28,3.0,Calm,Calm,-,N/A,Fog,Clear,0,2013-11-21 12:32:00
3:53 AM,-45.0,-9999,N/A,30.64,4.0,Calm,Calm,-,N/A,Fog,Clear,0,2013-11-21 12:53:00
4:53 AM,-45.9,-9999,N/A,30.64,4.0,Calm,Calm,-,N/A,,Clear,0,2013-11-21 13:53:00
5:53 AM,-45.9,-9999,N/A,30.64,10.0,Calm,Calm,-,N/A,,Clear,0,2013-11-21 14:53:00
6:53 AM,-45.9,-9999,N/A,30.64,4.0,Calm,Calm,-,N/A,Fog,Clear,0,2013-11-21 15:53:00
7:53 AM,-45.9,-9999,N/A,30.64,10.0,Calm,Calm,-,N/A,Fog,Patches of Fog,0,2013-11-21 16:53:00
8:53 AM,-47.0,-9999,N/A,30.64,10.0,Calm,Calm,-,N/A,Fog,Patches of Fog,0,2013-11-21 17:53:00
9:53 AM,-47.0,-9999,N/A,30.64,10.0,Calm,Calm,-,N/A,Fog,Patches of Fog,0,2013-11-21 18:53:00
10:53 AM,-40.0,-9999,N/A,30.61,10.0,Calm,Calm,-,N/A,Fog,Patches of Fog,0,2013-11-21 19:53:00
11:53 AM,-38.9,-9999,N/A,30.61,10.0,Calm,Calm,-,N/A,Fog,Patches of Fog,0,2013-11-21 20:53:00
12:53 PM,-36.9,-9999,N/A,30.59,10.0,Calm,Calm,-,N/A,Fog,Scattered Clouds,0,2013-11-21 21:53:00
1:53 PM,-36.0,-9999,N/A,30.57,10.0,Calm,Calm,-,N/A,Fog,Mostly Cloudy,0,2013-11-21 22:53:00
2:53 PM,-34.1,-9999,N/A,30.55,10.0,Calm,Calm,-,N/A,Fog,Mostly Cloudy,0,2013-11-21 23:53:00
3:53 PM,-33.0,-9999,N/A,30.54,10.0,Calm,Calm,-,N/A,Fog,Mostly Cloudy,0,2013-11-22 00:53:00
4:53 PM,-31.0,-9999,N/A,30.51,10.0,Calm,Calm,-,N/A,,Mostly Cloudy,0,2013-11-22 01:53:00
5:53 PM,-29.0,-34.1,77,30.47,10.0,Calm,Calm,-,N/A,,Overcast,0,2013-11-22 02:53:00
6:53 PM,-26.0,-32.1,73,30.44,10.0,Calm,Calm,-,N/A,,Overcast,0,2013-11-22 03:53:00
7:53 PM,-25.1,-31.0,74,30.40,10.0,Calm,Calm,-,N/A,,Overcast,0,2013-11-22 04:53:00
8:53 PM,-24.0,-29.9,74,30.38,10.0,Calm,Calm,-,N/A,,Overcast,0,2013-11-22 05:53:00
9:53 PM,-23.1,-29.0,74,30.35,10.0,Calm,Calm,-,N/A,,Mostly Cloudy,0,2013-11-22 06:53:00
10:53 PM,-23.1,-29.0,74,30.27,10.0,Calm,Calm,-,N/A,,Mostly Cloudy,0,2013-11-22 07:53:00
11:53 PM,-22.0,-27.9,74,30.25,10.0,Calm,Calm,-,N/A,,Mostly Cloudy,0,2013-11-22 08:53:00